Time,TemperatureF,DewpointF,PressureIn,WindDirection,WindDirectionDegrees,WindSpeedMPH,WindSpeedGustMPH,Humidity,HourlyPrecipIn,Conditions,Clouds,dailyrainin,SoftwareType,DateUTC
2013-09-01 00:01:00,73.6,71.5,29.78,NE,38,0.0,3.0,93,0.00,,OVC OVC///CB,0.07,WUHU216DAVISVP2,2013-09-01 04:01:00,
2013-09-01 00:06:00,73.6,71.2,29.78,East,98,0.0,5.0,92,0.00,,OVC OVC///CB,0.00,WUHU216DAVISVP2,2013-09-01 04:06:00,
2013-09-01 00:11:00,73.5,71.1,29.78,East,97,0.0,5.0,92,0.00,,OVC OVC///CB,0.00,WUHU216DAVISVP2,2013-09-01 04:11:00,
2013-09-01 00:16:00,73.5,71.1,29.78,NE,51,0.0,5.0,92,0.00,,OVC OVC///CB,0.00,WUHU216DAVISVP2,2013-09-01 04:16:00,
2013-09-01 00:21:00,73.4,71.0,29.78,East,95,0.0,5.0,92,0.00,,OVC OVC///CB,0.00,WUHU216DAVISVP2,2013-09-01 04:21:00,
2013-09-01 00:26:00,73.3,70.9,29.78,ESE,115,3.0,3.0,92,0.00,,OVC OVC///CB,0.00,WUHU216DAVISVP2,2013-09-01 04:26:00,
2013-09-01 00:31:00,73.3,71.3,29.78,ESE,107,1.0,3.0,93,0.00,,OVC OVC///CB,0.00,WUHU216DAVISVP2,2013-09-01 04:31:00,
2013-09-01 00:36:00,73.3,70.9,29.78,East,86,1.0,3.0,92,0.00,,OVC OVC///CB,0.00,WUHU216DAVISVP2,2013-09-01 04:36:00,
2013-09-01 00:41:00,73.3,70.9,29.78,East,86,0.0,3.0,92,0.00,,OVC OVC///CB,0.00,WUHU216DAVISVP2,2013-09-01 04:41:00,
2013-09-01 00:46:00,73.3,70.9,29.78,ESE,111,0.0,2.0,92,0.00,,OVC OVC///CB,0.00,WUHU216DAVISVP2,2013-09-01 04:46:00,
2013-09-01 00:51:00,73.3,70.9,29.78,East,100,2.0,3.0,92,0.00,,OVC OVC///CB,0.00,WUHU216DAVISVP2,2013-09-01 04:51:00,
2013-09-01 00:56:00,73.3,70.9,29.78,East,100,0.0,3.0,92,0.00,,OVC OVC///CB,0.00,WUHU216DAVISVP2,2013-09-01 04:56:00,
2013-09-01 01:01:00,73.3,71.3,29.79,East,100,0.0,3.0,93,0.00,,OVC OVC///CB,0.00,WUHU216DAVISVP2,2013-09-01 05:01:00,
2013-09-01 01:06:00,73.2,71.2,29.79,East,101,0.0,3.0,93,0.00,,OVC OVC///CB,0.00,WUHU216DAVISVP2,2013-09-01 05:06:00,
2013-09-01 01:11:00,73.2,71.2,29.78,East,82,1.0,2.0,93,0.00,,OVC OVC///CB,0.00,WUHU216DAVISVP2,2013-09-01 05:11:00,
2013-09-01 01:16:00,73.1,71.1,29.78,East,91,0.0,2.0,93,0.00,,OVC OVC///CB,0.00,WUHU216DAVISVP2,2013-09-01 05:16:00,
2013-09-01 01:21:00,72.9,70.9,29.78,East,91,0.0,2.0,93,0.00,,OVC OVC///CB,0.00,WUHU216DAVISVP2,2013-09-01 05:21:00,
2013-09-01 01:26:00,72.8,71.1,29.78,East,98,0.0,2.0,94,0.00,,OVC OVC///CB,0.00,WUHU216DAVISVP2,2013-09-01 05:26:00,
2013-09-01 01:31:00,72.6,70.9,29.78,East,98,0.0,2.0,94,0.00,,OVC OVC///CB,0.00,WUHU216DAVISVP2,2013-09-01 05:31:00,
2013-09-01 01:36:00,72.5,70.8,29.78,East,97,0.0,1.0,94,0.00,,OVC OVC///CB,0.00,WUHU216DAVISVP2,2013-09-01 05:36:00,
2013-09-01 01:41:00,72.4,70.7,29.78,East,83,2.0,4.0,94,0.00,,OVC OVC///CB,0.00,WUHU216DAVISVP2,2013-09-01 05:41:00,
2013-09-01 01:46:00,72.4,70.7,29.78,East,85,0.0,4.0,94,0.00,,OVC OVC///CB,0.00,WUHU216DAVISVP2,2013-09-01 05:46:00,
2013-09-01 01:51:00,72.4,70.7,29.78,ESE,103,0.0,3.0,94,0.00,,OVC OVC///CB,0.00,WUHU216DAVISVP2,2013-09-01 05:51:00,
2013-09-01 01:56:00,72.4,71.0,29.77,ESE,123,0.0,4.0,95,0.00,,OVC OVC///CB,0.00,WUHU216DAVISVP2,2013-09-01 05:56:00,
2013-09-01 02:01:00,72.5,70.8,29.77,East,88,1.0,4.0,94,0.00,,OVC OVC///CB,0.00,WUHU216DAVISVP2,2013-09-01 06:01:00,
2013-09-01 02:06:00,72.6,70.9,29.77,ENE,78,0.0,4.0,94,0.00,,OVC OVC///CB,0.00,WUHU216DAVISVP2,2013-09-01 06:06:00,
2013-09-01 02:11:00,72.5,70.8,29.77,ENE,68,0.0,4.0,94,0.00,,OVC OVC///CB,0.00,WUHU216DAVISVP2,2013-09-01 06:11:00,
2013-09-01 02:16:00,72.4,71.0,29.77,East,82,1.0,3.0,95,0.00,,OVC OVC///CB,0.00,WUHU216DAVISVP2,2013-09-01 06:16:00,
2013-09-01 02:21:00,72.4,71.0,29.77,East,90,0.0,3.0,95,0.00,,OVC OVC///CB,0.00,WUHU216DAVISVP2,2013-09-01 06:21:00,
2013-09-01 02:26:00,72.4,71.0,29.77,East,95,0.0,2.0,95,0.00,,OVC OVC///CB,0.00,WUHU216DAVISVP2,2013-09-01 06:26:00,
2013-09-01 02:31:00,72.4,71.0,29.77,East,90,0.0,2.0,95,0.00,,OVC OVC///CB,0.00,WUHU216DAVISVP2,2013-09-01 06:31:00,
2013-09-01 02:36:00,72.4,71.0,29.76,ENE,71,1.0,2.0,95,0.00,,OVC OVC///CB,0.00,WUHU216DAVISVP2,2013-09-01 06:36:00,
2013-09-01 02:41:00,72.4,71.0,29.77,ENE,70,1.0,2.0,95,0.00,,OVC OVC///CB,0.00,WUHU216DAVISVP2,2013-09-01 06:41:00,
2013-09-01 02:46:00,72.3,70.9,29.76,NNE,26,0.0,2.0,95,0.00,,OVC OVC///CB,0.00,WUHU216DAVISVP2,2013-09-01 06:46:00,
2013-09-01 02:51:00,72.1,70.7,29.76,NNE,26,0.0,2.0,95,0.00,,OVC OVC///CB,0.00,WUHU216DAVISVP2,2013-09-01 06:51:00,
2013-09-01 02:56:00,72.0,70.6,29.76,NNE,26,0.0,2.0,95,0.00,,OVC OVC///CB,0.00,WUHU216DAVISVP2,2013-09-01 06:56:00,
2013-09-01 03:01:00,71.8,70.7,29.76,NNE,26,0.0,2.0,96,0.00,,OVC OVC///CB,0.00,WUHU216DAVISVP2,2013-09-01 07:01:00,
2013-09-01 03:06:00,71.6,70.5,29.75,NNE,26,0.0,1.0,96,0.00,,OVC OVC///CB,0.00,WUHU216DAVISVP2,2013-09-01 07:06:00,
2013-09-01 03:11:00,71.5,70.4,29.75,NNE,26,0.0,0.0,96,0.00,,OVC OVC///CB,0.00,WUHU216DAVISVP2,2013-09-01 07:11:00,
2013-09-01 03:16:00,71.5,70.4,29.75,SW,225,1.0,2.0,96,0.00,,OVC OVC///CB,0.00,WUHU216DAVISVP2,2013-09-01 07:16:00,
2013-09-01 03:21:00,71.5,70.4,29.75,SSW,203,0.0,3.0,96,0.00,,OVC OVC///CB,0.00,WUHU216DAVISVP2,2013-09-01 07:21:00,
2013-09-01 03:26:00,71.5,70.7,29.75,SW,217,0.0,3.0,97,0.00,,OVC OVC///CB,0.00,WUHU216DAVISVP2,2013-09-01 07:26:00,
2013-09-01 03:31:00,71.6,70.8,29.76,South,190,1.0,3.0,97,0.00,,OVC OVC///CB,0.00,WUHU216DAVISVP2,2013-09-01 07:31:00,
2013-09-01 03:36:00,71.6,70.8,29.75,SSE,165,4.0,5.0,97,0.00,,OVC OVC///CB,0.00,WUHU216DAVISVP2,2013-09-01 07:36:00,
2013-09-01 03:41:00,71.7,70.9,29.75,South,179,0.0,6.0,97,0.00,,OVC OVC///CB,0.00,WUHU216DAVISVP2,2013-09-01 07:41:00,
2013-09-01 03:46:00,71.8,71.0,29.75,SSE,153,0.0,6.0,97,0.00,,OVC OVC///CB,0.00,WUHU216DAVISVP2,2013-09-01 07:46:00,
2013-09-01 03:51:00,71.8,71.0,29.75,South,185,0.0,6.0,97,0.00,,OVC OVC///CB,0.00,WUHU216DAVISVP2,2013-09-01 07:51:00,
2013-09-01 03:56:00,71.9,71.1,29.75,South,183,0.0,6.0,97,0.00,,OVC OVC///CB,0.00,WUHU216DAVISVP2,2013-09-01 07:56:00,
2013-09-01 04:01:00,72.0,71.2,29.75,SSW,196,0.0,6.0,97,0.00,,OVC OVC///CB,0.00,WUHU216DAVISVP2,2013-09-01 08:01:00,
2013-09-01 04:06:00,72.1,71.3,29.75,SSW,200,0.0,3.0,97,0.00,,OVC OVC///CB,0.00,WUHU216DAVISVP2,2013-09-01 08:06:00,
2013-09-01 04:11:00,72.1,71.3,29.75,SSW,200,0.0,3.0,97,0.00,,OVC OVC///CB,0.00,WUHU216DAVISVP2,2013-09-01 08:11:00,
2013-09-01 04:16:00,72.1,71.3,29.75,SSW,200,0.0,3.0,97,0.00,,OVC OVC///CB,0.00,WUHU216DAVISVP2,2013-09-01 08:16:00,
2013-09-01 04:21:00,72.0,71.2,29.75,SSW,200,0.0,1.0,97,0.00,,OVC OVC///CB,0.00,WUHU216DAVISVP2,2013-09-01 08:21:00,
2013-09-01 04:26:00,71.9,71.1,29.74,SSW,203,1.0,3.0,97,0.00,,OVC OVC///CB,0.00,WUHU216DAVISVP2,2013-09-01 08:26:00,
2013-09-01 04:31:00,71.7,70.9,29.74,SSW,212,0.0,4.0,97,0.00,,OVC OVC///CB,0.00,WUHU216DAVISVP2,2013-09-01 08:31:00,
2013-09-01 04:36:00,71.6,70.8,29.75,SSW,204,2.0,4.0,97,0.00,,OVC OVC///CB,0.00,WUHU216DAVISVP2,2013-09-01 08:36:00,
2013-09-01 04:41:00,71.4,70.6,29.74,SSW,208,0.0,4.0,97,0.00,,OVC OVC///CB,0.00,WUHU216DAVISVP2,2013-09-01 08:41:00,
2013-09-01 04:46:00,71.3,70.8,29.75,SSW,208,0.0,3.0,98,0.00,,OVC OVC///CB,0.00,WUHU216DAVISVP2,2013-09-01 08:46:00,
2013-09-01 04:51:00,71.2,70.7,29.75,SSW,208,0.0,3.0,98,0.00,,OVC OVC///CB,0.00,WUHU216DAVISVP2,2013-09-01 08:51:00,
2013-09-01 04:56:00,71.1,70.6,29.75,SSW,208,0.0,1.0,98,0.00,,OVC OVC///CB,0.00,WUHU216DAVISVP2,2013-09-01 08:56:00,
2013-09-01 05:01:00,71.0,70.5,29.75,SSW,208,0.0,1.0,98,0.00,,OVC OVC///CB,0.00,WUHU216DAVISVP2,2013-09-01 09:01:00,
2013-09-01 05:06:00,70.8,70.3,29.75,SSW,208,0.0,1.0,98,0.00,,OVC OVC///CB,0.00,WUHU216DAVISVP2,2013-09-01 09:06:00,
2013-09-01 05:11:00,70.6,70.1,29.75,SSW,208,0.0,1.0,98,0.00,,OVC OVC///CB,0.00,WUHU216DAVISVP2,2013-09-01 09:11:00,
2013-09-01 05:16:00,70.6,70.4,29.75,SSW,208,0.0,1.0,99,0.00,,OVC OVC///CB,0.00,WUHU216DAVISVP2,2013-09-01 09:16:00,
2013-09-01 05:21:00,70.6,70.4,29.75,SSW,208,0.0,1.0,99,0.00,,OVC OVC///CB,0.00,WUHU216DAVISVP2,2013-09-01 09:21:00,
2013-09-01 05:26:00,70.6,70.4,29.75,SSW,208,0.0,1.0,99,0.00,,OVC OVC///CB,0.00,WUHU216DAVISVP2,2013-09-01 09:26:00,
2013-09-01 05:31:00,70.6,70.4,29.75,SSW,208,0.0,1.0,99,0.00,,OVC OVC///CB,0.00,WUHU216DAVISVP2,2013-09-01 09:31:00,
2013-09-01 05:36:00,70.6,70.4,29.75,SSW,208,0.0,1.0,99,0.00,,OVC OVC///CB,0.00,WUHU216DAVISVP2,2013-09-01 09:36:00,
2013-09-01 05:41:00,70.7,70.5,29.76,SW,230,0.0,1.0,99,0.00,,OVC OVC///CB,0.00,WUHU216DAVISVP2,2013-09-01 09:41:00,
2013-09-01 05:46:00,70.8,70.6,29.75,SW,231,0.0,1.0,99,0.00,,OVC OVC///CB,0.00,WUHU216DAVISVP2,2013-09-01 09:46:00,
2013-09-01 05:51:00,70.8,70.6,29.75,SSW,197,0.0,1.0,99,0.00,,OVC OVC///CB,0.00,WUHU216DAVISVP2,2013-09-01 09:51:00,
2013-09-01 05:56:00,70.9,70.7,29.76,SSW,197,0.0,1.0,99,0.00,,OVC OVC///CB,0.00,WUHU216DAVISVP2,2013-09-01 09:56:00,
2013-09-01 06:01:00,70.9,70.7,29.75,WSW,256,0.0,1.0,99,0.00,,OVC OVC///CB,0.00,WUHU216DAVISVP2,2013-09-01 10:01:00,
2013-09-01 06:06:00,71.0,70.8,29.76,SW,226,1.0,2.0,99,0.00,,OVC OVC///CB,0.00,WUHU216DAVISVP2,2013-09-01 10:06:00,
2013-09-01 06:11:00,71.0,70.8,29.75,SW,221,1.0,2.0,99,0.00,,OVC OVC///CB,0.00,WUHU216DAVISVP2,2013-09-01 10:11:00,
2013-09-01 06:16:00,70.9,70.7,29.75,SW,229,0.0,2.0,99,0.00,,OVC OVC///CB,0.00,WUHU216DAVISVP2,2013-09-01 10:16:00,
2013-09-01 06:21:00,70.9,70.7,29.75,SW,229,0.0,2.0,99,0.00,,OVC OVC///CB,0.00,WUHU216DAVISVP2,2013-09-01 10:21:00,
2013-09-01 06:26:00,70.9,70.7,29.75,WSW,243,0.0,2.0,99,0.00,,OVC OVC///CB,0.00,WUHU216DAVISVP2,2013-09-01 10:26:00,
2013-09-01 06:31:00,70.8,70.6,29.76,WSW,243,0.0,2.0,99,0.00,,OVC OVC///CB,0.00,WUHU216DAVISVP2,2013-09-01 10:31:00,
2013-09-01 06:36:00,70.7,70.5,29.76,West,274,0.0,1.0,99,0.00,,OVC OVC///CB,0.00,WUHU216DAVISVP2,2013-09-01 10:36:00,
2013-09-01 06:41:00,70.7,70.5,29.76,West,274,0.0,1.0,99,0.00,,OVC OVC///CB,0.00,WUHU216DAVISVP2,2013-09-01 10:41:00,
2013-09-01 06:46:00,70.8,70.8,29.76,West,274,0.0,1.0,100,0.00,,OVC OVC///CB,0.00,WUHU216DAVISVP2,2013-09-01 10:46:00,
2013-09-01 06:51:00,70.7,70.7,29.76,SW,222,0.0,1.0,100,0.00,,OVC OVC///CB,0.00,WUHU216DAVISVP2,2013-09-01 10:51:00,
2013-09-01 06:56:00,70.8,70.8,29.77,WSW,256,0.0,1.0,100,0.00,,OVC OVC///CB,0.00,WUHU216DAVISVP2,2013-09-01 10:56:00,
2013-09-01 07:01:00,70.8,70.8,29.77,WSW,238,0.0,2.0,100,0.00,,OVC OVC///CB,0.00,WUHU216DAVISVP2,2013-09-01 11:01:00,
2013-09-01 07:06:00,70.8,70.8,29.77,West,273,0.0,2.0,100,0.00,,OVC OVC///CB,0.00,WUHU216DAVISVP2,2013-09-01 11:06:00,
2013-09-01 07:11:00,70.8,70.8,29.77,WSW,246,0.0,2.0,100,0.00,,OVC OVC///CB,0.00,WUHU216DAVISVP2,2013-09-01 11:11:00,
2013-09-01 07:16:00,70.8,70.8,29.77,WSW,253,0.0,2.0,100,0.00,,OVC OVC///CB,0.00,WUHU216DAVISVP2,2013-09-01 11:16:00,
2013-09-01 07:21:00,70.8,70.6,29.77,SW,221,0.0,4.0,99,0.00,,OVC OVC///CB,0.00,WUHU216DAVISVP2,2013-09-01 11:21:00,
2013-09-01 07:26:00,70.8,70.6,29.77,West,269,2.0,4.0,99,0.00,,OVC OVC///CB,0.00,WUHU216DAVISVP2,2013-09-01 11:26:00,
2013-09-01 07:31:00,70.7,70.5,29.77,SW,224,1.0,4.0,99,0.00,,OVC OVC///CB,0.00,WUHU216DAVISVP2,2013-09-01 11:31:00,
2013-09-01 07:36:00,70.7,70.7,29.77,SW,224,0.0,4.0,100,0.00,,OVC OVC///CB,0.00,WUHU216DAVISVP2,2013-09-01 11:36:00,
2013-09-01 07:41:00,70.7,70.7,29.77,SW,235,2.0,2.0,100,0.00,,OVC OVC///CB,0.00,WUHU216DAVISVP2,2013-09-01 11:41:00,
2013-09-01 07:46:00,70.7,70.7,29.77,SW,231,0.0,3.0,100,0.00,,OVC OVC///CB,0.00,WUHU216DAVISVP2,2013-09-01 11:46:00,
2013-09-01 07:51:00,70.7,70.7,29.77,SSW,200,0.0,3.0,100,0.00,,OVC OVC///CB,0.00,WUHU216DAVISVP2,2013-09-01 11:51:00,
2013-09-01 07:56:00,70.7,70.7,29.77,West,265,3.0,4.0,100,0.00,,OVC OVC///CB,0.00,WUHU216DAVISVP2,2013-09-01 11:56:00,
2013-09-01 08:01:00,70.6,70.4,29.77,SW,231,2.0,4.0,99,0.00,,OVC OVC///CB,0.00,WUHU216DAVISVP2,2013-09-01 12:01:00,
2013-09-01 08:06:00,70.7,70.7,29.77,SW,221,3.0,4.0,100,0.00,,OVC OVC///CB,0.00,WUHU216DAVISVP2,2013-09-01 12:06:00,
2013-09-01 08:11:00,70.8,70.6,29.77,SW,233,1.0,4.0,99,0.00,,OVC OVC///CB,0.00,WUHU216DAVISVP2,2013-09-01 12:11:00,
2013-09-01 08:16:00,70.9,70.7,29.77,SSW,210,0.0,4.0,99,0.00,,OVC OVC///CB,0.00,WUHU216DAVISVP2,2013-09-01 12:16:00,
2013-09-01 08:21:00,70.9,70.7,29.77,WSW,238,3.0,5.0,99,0.00,,OVC OVC///CB,0.00,WUHU216DAVISVP2,2013-09-01 12:21:00,
2013-09-01 08:26:00,71.1,70.9,29.78,WSW,258,0.0,5.0,99,0.00,,OVC OVC///CB,0.00,WUHU216DAVISVP2,2013-09-01 12:26:00,
2013-09-01 08:31:00,71.6,71.4,29.78,West,280,0.0,5.0,99,0.00,,OVC OVC///CB,0.00,WUHU216DAVISVP2,2013-09-01 12:31:00,
2013-09-01 08:36:00,71.7,70.9,29.78,West,262,0.0,5.0,97,0.00,,OVC OVC///CB,0.00,WUHU216DAVISVP2,2013-09-01 12:36:00,
2013-09-01 08:41:00,71.8,71.0,29.78,West,262,0.0,3.0,97,0.00,,OVC OVC///CB,0.00,WUHU216DAVISVP2,2013-09-01 12:41:00,
2013-09-01 08:46:00,71.9,70.8,29.78,SW,226,2.0,4.0,96,0.00,,OVC OVC///CB,0.00,WUHU216DAVISVP2,2013-09-01 12:46:00,
2013-09-01 08:51:00,72.1,71.0,29.78,SW,228,1.0,4.0,96,0.00,,OVC OVC///CB,0.00,WUHU216DAVISVP2,2013-09-01 12:51:00,
2013-09-01 08:56:00,72.5,71.1,29.77,South,191,2.0,4.0,95,0.00,,OVC OVC///CB,0.00,WUHU216DAVISVP2,2013-09-01 12:56:00,
2013-09-01 09:01:00,73.0,71.0,29.77,WSW,246,1.0,4.0,93,0.00,,OVC OVC///CB,0.00,WUHU216DAVISVP2,2013-09-01 13:01:00,
2013-09-01 09:06:00,73.6,71.5,29.78,SSE,165,2.0,4.0,93,0.00,,OVC OVC///CB,0.00,WUHU216DAVISVP2,2013-09-01 13:06:00,
2013-09-01 09:11:00,74.0,71.0,29.78,WSW,248,2.0,6.0,90,0.00,,OVC OVC///CB,0.00,WUHU216DAVISVP2,2013-09-01 13:11:00,
2013-09-01 09:16:00,74.1,71.1,29.78,SW,221,2.0,6.0,90,0.00,,OVC OVC///CB,0.00,WUHU216DAVISVP2,2013-09-01 13:16:00,
2013-09-01 09:21:00,74.6,71.3,29.78,SW,229,1.0,6.0,89,0.00,,OVC OVC///CB,0.00,WUHU216DAVISVP2,2013-09-01 13:21:00,
2013-09-01 09:26:00,74.9,71.2,29.78,SW,214,1.0,6.0,88,0.00,,OVC OVC///CB,0.00,WUHU216DAVISVP2,2013-09-01 13:26:00,
2013-09-01 09:31:00,74.7,70.7,29.78,North,11,2.0,7.0,87,0.00,,OVC OVC///CB,0.00,WUHU216DAVISVP2,2013-09-01 13:31:00,
2013-09-01 09:36:00,74.7,70.7,29.78,SW,235,0.0,7.0,87,0.00,,OVC OVC///CB,0.00,WUHU216DAVISVP2,2013-09-01 13:36:00,
2013-09-01 09:41:00,74.4,70.4,29.78,WSW,257,0.0,7.0,87,0.00,,OVC OVC///CB,0.00,WUHU216DAVISVP2,2013-09-01 13:41:00,
2013-09-01 09:46:00,74.3,70.3,29.78,WNW,286,0.0,7.0,87,0.00,,OVC OVC///CB,0.00,WUHU216DAVISVP2,2013-09-01 13:46:00,
2013-09-01 09:51:00,74.4,70.4,29.78,WNW,287,2.0,6.0,87,0.00,,OVC OVC///CB,0.00,WUHU216DAVISVP2,2013-09-01 13:51:00,
2013-09-01 09:56:00,74.6,70.6,29.78,SW,235,0.0,6.0,87,0.00,,OVC OVC///CB,0.00,WUHU216DAVISVP2,2013-09-01 13:56:00,
2013-09-01 10:01:00,74.6,70.6,29.78,NW,316,0.0,6.0,87,0.00,,OVC OVC///CB,0.00,WUHU216DAVISVP2,2013-09-01 14:01:00,
2013-09-01 10:06:00,74.8,70.5,29.78,WNW,300,0.0,6.0,86,0.00,,OVC OVC///CB,0.00,WUHU216DAVISVP2,2013-09-01 14:06:00,
2013-09-01 10:11:00,74.8,70.5,29.78,SW,230,1.0,3.0,86,0.00,,OVC OVC///CB,0.00,WUHU216DAVISVP2,2013-09-01 14:11:00,
2013-09-01 10:16:00,74.9,70.6,29.78,WSW,238,0.0,4.0,86,0.00,,OVC OVC///CB,0.00,WUHU216DAVISVP2,2013-09-01 14:16:00,
2013-09-01 10:21:00,75.0,70.7,29.78,South,184,1.0,4.0,86,0.00,,OVC OVC///CB,0.00,WUHU216DAVISVP2,2013-09-01 14:21:00,
2013-09-01 10:26:00,75.4,70.7,29.77,SW,226,0.0,4.0,85,0.00,,OVC OVC///CB,0.00,WUHU216DAVISVP2,2013-09-01 14:26:00,
2013-09-01 10:31:00,75.6,70.3,29.77,WNW,284,1.0,4.0,83,0.00,,OVC OVC///CB,0.00,WUHU216DAVISVP2,2013-09-01 14:31:00,
2013-09-01 10:36:00,75.8,70.5,29.77,SW,229,2.0,4.0,83,0.00,,OVC OVC///CB,0.00,WUHU216DAVISVP2,2013-09-01 14:36:00,
2013-09-01 10:41:00,76.3,71.3,29.77,SSW,204,0.0,4.0,84,0.00,,OVC OVC///CB,0.00,WUHU216DAVISVP2,2013-09-01 14:41:00,
2013-09-01 10:46:00,77.1,71.4,29.77,West,262,2.0,4.0,82,0.00,,OVC OVC///CB,0.00,WUHU216DAVISVP2,2013-09-01 14:46:00,
2013-09-01 10:51:00,77.2,71.1,29.77,SW,219,4.0,4.0,81,0.00,,OVC OVC///CB,0.00,WUHU216DAVISVP2,2013-09-01 14:51:00,
2013-09-01 10:56:00,77.2,71.1,29.77,West,280,2.0,4.0,81,0.00,,OVC OVC///CB,0.00,WUHU216DAVISVP2,2013-09-01 14:56:00,
2013-09-01 11:01:00,77.6,71.2,29.77,SW,235,1.0,4.0,80,0.00,,OVC OVC///CB,0.00,WUHU216DAVISVP2,2013-09-01 15:01:00,
2013-09-01 11:06:00,78.2,72.1,29.77,SSE,165,2.0,5.0,81,0.00,,OVC OVC///CB,0.00,WUHU216DAVISVP2,2013-09-01 15:06:00,
2013-09-01 11:11:00,78.2,71.8,29.77,SW,228,0.0,5.0,80,0.00,,OVC OVC///CB,0.00,WUHU216DAVISVP2,2013-09-01 15:11:00,
2013-09-01 11:16:00,78.3,71.9,29.77,SW,219,0.0,5.0,80,0.00,,OVC OVC///CB,0.00,WUHU216DAVISVP2,2013-09-01 15:16:00,
2013-09-01 11:21:00,78.6,72.2,29.76,SW,231,0.0,6.0,80,0.00,,OVC OVC///CB,0.00,WUHU216DAVISVP2,2013-09-01 15:21:00,
2013-09-01 11:26:00,78.5,71.3,29.76,WSW,244,2.0,7.0,78,0.00,,OVC OVC///CB,0.00,WUHU216DAVISVP2,2013-09-01 15:26:00,
2013-09-01 11:31:00,78.4,72.0,29.77,NW,311,0.0,7.0,80,0.00,,OVC OVC///CB,0.00,WUHU216DAVISVP2,2013-09-01 15:31:00,
2013-09-01 11:36:00,78.8,72.0,29.77,South,172,2.0,6.0,79,0.00,,OVC OVC///CB,0.00,WUHU216DAVISVP2,2013-09-01 15:36:00,
2013-09-01 11:41:00,79.4,72.6,29.77,West,266,4.0,6.0,79,0.00,,OVC OVC///CB,0.00,WUHU216DAVISVP2,2013-09-01 15:41:00,
2013-09-01 11:46:00,79.7,72.1,29.77,SW,226,2.0,6.0,77,0.00,,OVC OVC///CB,0.00,WUHU216DAVISVP2,2013-09-01 15:46:00,
2013-09-01 11:51:00,79.6,72.4,29.76,SW,232,2.0,6.0,78,0.00,,OVC OVC///CB,0.00,WUHU216DAVISVP2,2013-09-01 15:51:00,
2013-09-01 11:56:00,79.9,72.3,29.76,SSW,195,5.0,9.0,77,0.00,,OVC OVC///CB,0.00,WUHU216DAVISVP2,2013-09-01 15:56:00,
2013-09-01 12:01:00,80.4,73.2,29.76,WSW,249,2.0,9.0,78,0.00,,OVC OVC///CB,0.00,WUHU216DAVISVP2,2013-09-01 16:01:00,
2013-09-01 12:06:00,80.7,73.1,29.76,WSW,249,1.0,9.0,77,0.00,,OVC OVC///CB,0.00,WUHU216DAVISVP2,2013-09-01 16:06:00,
2013-09-01 12:11:00,81.3,72.6,29.76,SW,214,4.0,9.0,74,0.00,,OVC OVC///CB,0.00,WUHU216DAVISVP2,2013-09-01 16:11:00,
2013-09-01 12:16:00,81.1,72.8,29.76,WSW,238,3.0,7.0,75,0.00,,OVC OVC///CB,0.00,WUHU216DAVISVP2,2013-09-01 16:16:00,
2013-09-01 12:21:00,81.7,73.7,29.76,SW,218,6.0,7.0,76,0.00,,OVC OVC///CB,0.00,WUHU216DAVISVP2,2013-09-01 16:21:00,
2013-09-01 12:26:00,82.5,72.5,29.76,SW,226,1.0,8.0,71,0.00,,OVC OVC///CB,0.00,WUHU216DAVISVP2,2013-09-01 16:26:00,
2013-09-01 12:31:00,82.3,71.9,29.76,SSE,160,1.0,8.0,70,0.00,,OVC OVC///CB,0.00,WUHU216DAVISVP2,2013-09-01 16:31:00,
2013-09-01 12:36:00,81.9,72.0,29.76,West,259,4.0,8.0,71,0.00,,OVC OVC///CB,0.00,WUHU216DAVISVP2,2013-09-01 16:36:00,
2013-09-01 12:41:00,81.9,72.8,29.76,ENE,77,2.0,8.0,73,0.00,,OVC OVC///CB,0.00,WUHU216DAVISVP2,2013-09-01 16:41:00,
2013-09-01 12:46:00,82.3,72.7,29.76,WSW,245,1.0,8.0,72,0.00,,OVC OVC///CB,0.00,WUHU216DAVISVP2,2013-09-01 16:46:00,
2013-09-01 12:51:00,82.7,73.1,29.76,SE,144,0.0,7.0,72,0.00,,OVC OVC///CB,0.00,WUHU216DAVISVP2,2013-09-01 16:51:00,
2013-09-01 12:57:00,83.0,73.0,29.75,SW,229,6.0,8.0,71,0.00,,OVC OVC///CB,0.00,WUHU216DAVISVP2,2013-09-01 16:57:00,
2013-09-01 13:02:00,82.8,73.2,29.76,ESE,104,1.0,8.0,72,0.00,,OVC OVC///CB,0.00,WUHU216DAVISVP2,2013-09-01 17:02:00,
2013-09-01 13:07:00,82.4,73.2,29.76,SW,216,3.0,8.0,73,0.00,,OVC OVC///CB,0.00,WUHU216DAVISVP2,2013-09-01 17:07:00,
2013-09-01 13:12:00,82.5,73.7,29.76,SSW,203,1.0,9.0,74,0.00,,OVC OVC///CB,0.00,WUHU216DAVISVP2,2013-09-01 17:12:00,
2013-09-01 13:17:00,82.5,72.9,29.76,SW,224,1.0,9.0,72,0.00,,OVC OVC///CB,0.00,WUHU216DAVISVP2,2013-09-01 17:17:00,
2013-09-01 13:22:00,82.3,72.3,29.76,WSW,240,2.0,8.0,71,0.00,,OVC OVC///CB,0.00,WUHU216DAVISVP2,2013-09-01 17:22:00,
2013-09-01 13:27:00,82.4,72.4,29.76,SW,236,3.0,8.0,71,0.00,,OVC OVC///CB,0.00,WUHU216DAVISVP2,2013-09-01 17:27:00,
2013-09-01 13:32:00,82.8,72.0,29.76,WSW,249,2.0,8.0,69,0.00,,OVC OVC///CB,0.00,WUHU216DAVISVP2,2013-09-01 17:32:00,
2013-09-01 13:37:00,82.4,72.0,29.76,SSE,163,4.0,8.0,70,0.00,,OVC OVC///CB,0.00,WUHU216DAVISVP2,2013-09-01 17:37:00,
2013-09-01 13:42:00,82.6,72.6,29.76,SW,228,0.0,8.0,71,0.00,,OVC OVC///CB,0.00,WUHU216DAVISVP2,2013-09-01 17:42:00,
2013-09-01 13:47:00,82.3,72.3,29.76,SW,225,2.0,8.0,71,0.00,,OVC OVC///CB,0.00,WUHU216DAVISVP2,2013-09-01 17:47:00,
2013-09-01 13:52:00,82.6,73.4,29.76,SSW,207,5.0,6.0,73,0.00,,OVC OVC///CB,0.00,WUHU216DAVISVP2,2013-09-01 17:52:00,
2013-09-01 13:56:00,82.6,73.4,29.76,SSW,198,2.0,8.0,73,0.00,,OVC OVC///CB,0.00,WUHU216DAVISVP2,2013-09-01 17:56:00,
2013-09-01 14:01:00,81.9,72.4,29.75,SW,233,3.0,9.0,72,0.00,,OVC OVC///CB,0.00,WUHU216DAVISVP2,2013-09-01 18:01:00,
2013-09-01 14:06:00,81.5,72.0,29.76,SW,235,5.0,9.0,72,0.00,,OVC OVC///CB,0.00,WUHU216DAVISVP2,2013-09-01 18:06:00,
2013-09-01 14:12:00,81.0,71.9,29.76,SW,233,2.0,9.0,73,0.00,,OVC OVC///CB,0.00,WUHU216DAVISVP2,2013-09-01 18:12:00,
2013-09-01 14:17:00,81.1,72.4,29.76,SW,236,1.0,8.0,74,0.00,,OVC OVC///CB,0.00,WUHU216DAVISVP2,2013-09-01 18:17:00,
2013-09-01 14:22:00,81.0,72.3,29.76,WSW,248,5.0,9.0,74,0.00,,OVC OVC///CB,0.00,WUHU216DAVISVP2,2013-09-01 18:22:00,
2013-09-01 14:27:00,81.0,72.7,29.76,SW,219,2.0,9.0,75,0.00,,OVC OVC///CB,0.00,WUHU216DAVISVP2,2013-09-01 18:27:00,
2013-09-01 14:32:00,80.6,71.9,29.76,WSW,248,1.0,9.0,74,0.00,,OVC OVC///CB,0.00,WUHU216DAVISVP2,2013-09-01 18:32:00,
2013-09-01 14:37:00,80.5,72.2,29.76,WSW,250,4.0,9.0,75,0.00,,OVC OVC///CB,0.00,WUHU216DAVISVP2,2013-09-01 18:37:00,
2013-09-01 14:42:00,80.1,71.8,29.76,SW,229,2.0,9.0,75,0.00,,OVC OVC///CB,0.00,WUHU216DAVISVP2,2013-09-01 18:42:00,
2013-09-01 14:47:00,79.9,72.0,29.76,NE,43,1.0,8.0,76,0.00,,OVC OVC///CB,0.00,WUHU216DAVISVP2,2013-09-01 18:47:00,
2013-09-01 14:52:00,79.8,71.9,29.76,SSW,211,3.0,9.0,76,0.00,,OVC OVC///CB,0.00,WUHU216DAVISVP2,2013-09-01 18:52:00,
2013-09-01 14:57:00,79.7,72.1,29.75,SW,221,6.0,9.0,77,0.00,,OVC OVC///CB,0.00,WUHU216DAVISVP2,2013-09-01 18:57:00,
2013-09-01 15:02:00,79.4,71.9,29.75,WSW,249,4.0,9.0,77,0.00,,OVC OVC///CB,0.00,WUHU216DAVISVP2,2013-09-01 19:02:00,
2013-09-01 15:07:00,79.2,72.0,29.75,WSW,240,5.0,11.0,78,0.00,,OVC OVC///CB,0.00,WUHU216DAVISVP2,2013-09-01 19:07:00,
2013-09-01 15:12:00,79.2,72.0,29.75,South,191,3.0,11.0,78,0.00,,OVC OVC///CB,0.00,WUHU216DAVISVP2,2013-09-01 19:12:00,
2013-09-01 15:17:00,79.6,72.1,29.75,SW,226,5.0,10.0,77,0.00,,OVC OVC///CB,0.00,WUHU216DAVISVP2,2013-09-01 19:17:00,
2013-09-01 15:22:00,79.9,72.3,29.75,SW,224,3.0,10.0,77,0.00,,OVC OVC///CB,0.00,WUHU216DAVISVP2,2013-09-01 19:22:00,
2013-09-01 15:27:00,80.4,72.8,29.75,WSW,242,2.0,8.0,77,0.00,,OVC OVC///CB,0.00,WUHU216DAVISVP2,2013-09-01 19:27:00,
2013-09-01 15:32:00,80.2,72.6,29.75,SW,214,2.0,11.0,77,0.00,,OVC OVC///CB,0.00,WUHU216DAVISVP2,2013-09-01 19:32:00,
2013-09-01 15:37:00,80.7,72.4,29.74,SE,139,5.0,11.0,75,0.00,,OVC OVC///CB,0.00,WUHU216DAVISVP2,2013-09-01 19:37:00,
2013-09-01 15:42:00,80.8,72.5,29.74,SW,214,2.0,11.0,75,0.00,,OVC OVC///CB,0.00,WUHU216DAVISVP2,2013-09-01 19:42:00,
2013-09-01 15:47:00,81.4,73.0,29.74,SW,226,1.0,11.0,75,0.00,,OVC OVC///CB,0.00,WUHU216DAVISVP2,2013-09-01 19:47:00,
2013-09-01 15:52:00,82.3,73.9,29.74,SSW,205,5.0,10.0,75,0.00,,OVC OVC///CB,0.00,WUHU216DAVISVP2,2013-09-01 19:52:00,
2013-09-01 15:57:00,82.6,73.4,29.74,SSW,206,1.0,7.0,73,0.00,,OVC OVC///CB,0.00,WUHU216DAVISVP2,2013-09-01 19:57:00,
2013-09-01 16:02:00,82.7,73.9,29.74,WNW,283,5.0,8.0,74,0.00,,OVC OVC///CB,0.00,WUHU216DAVISVP2,2013-09-01 20:02:00,
2013-09-01 16:07:00,82.1,73.3,29.74,WSW,243,3.0,8.0,74,0.00,,OVC OVC///CB,0.00,WUHU216DAVISVP2,2013-09-01 20:07:00,
2013-09-01 16:12:00,81.5,72.8,29.74,SSW,212,2.0,7.0,74,0.00,,OVC OVC///CB,0.00,WUHU216DAVISVP2,2013-09-01 20:12:00,
2013-09-01 16:17:00,81.7,73.0,29.74,SSW,204,5.0,7.0,74,0.00,,OVC OVC///CB,0.00,WUHU216DAVISVP2,2013-09-01 20:17:00,
2013-09-01 16:22:00,81.9,73.9,29.74,SSW,210,0.0,7.0,76,0.00,,OVC OVC///CB,0.00,WUHU216DAVISVP2,2013-09-01 20:22:00,
2013-09-01 16:27:00,82.3,73.5,29.73,SW,226,0.0,7.0,74,0.00,,OVC OVC///CB,0.00,WUHU216DAVISVP2,2013-09-01 20:27:00,
2013-09-01 16:32:00,82.6,73.4,29.73,WSW,251,7.0,8.0,73,0.00,,OVC OVC///CB,0.00,WUHU216DAVISVP2,2013-09-01 20:32:00,
2013-09-01 16:37:00,82.4,72.8,29.73,SSW,194,1.0,8.0,72,0.00,,OVC OVC///CB,0.00,WUHU216DAVISVP2,2013-09-01 20:37:00,
2013-09-01 16:42:00,82.1,73.0,29.73,SSW,210,1.0,7.0,73,0.00,,OVC OVC///CB,0.00,WUHU216DAVISVP2,2013-09-01 20:42:00,
2013-09-01 16:47:00,82.0,73.2,29.73,SSW,208,1.0,7.0,74,0.00,,OVC OVC///CB,0.00,WUHU216DAVISVP2,2013-09-01 20:47:00,
2013-09-01 16:52:00,82.1,73.3,29.73,SSE,153,1.0,8.0,74,0.00,,OVC OVC///CB,0.00,WUHU216DAVISVP2,2013-09-01 20:52:00,
2013-09-01 16:57:00,82.0,73.6,29.73,WSW,238,2.0,8.0,75,0.00,,OVC OVC///CB,0.00,WUHU216DAVISVP2,2013-09-01 20:57:00,
2013-09-01 17:02:00,81.9,73.5,29.72,South,184,6.0,10.0,75,0.00,,OVC OVC///CB,0.00,WUHU216DAVISVP2,2013-09-01 21:02:00,
2013-09-01 17:07:00,82.0,73.6,29.72,SSE,164,3.0,10.0,75,0.00,,OVC OVC///CB,0.00,WUHU216DAVISVP2,2013-09-01 21:07:00,
2013-09-01 17:12:00,81.5,73.5,29.72,SSW,195,0.0,10.0,76,0.00,,OVC OVC///CB,0.00,WUHU216DAVISVP2,2013-09-01 21:12:00,
2013-09-01 17:17:00,81.6,74.0,29.72,SW,221,0.0,10.0,77,0.00,,OVC OVC///CB,0.00,WUHU216DAVISVP2,2013-09-01 21:17:00,
2013-09-01 17:22:00,81.7,73.7,29.72,SSW,210,0.0,9.0,76,0.00,,OVC OVC///CB,0.00,WUHU216DAVISVP2,2013-09-01 21:22:00,
2013-09-01 17:27:00,82.2,74.2,29.72,SSE,148,0.0,9.0,76,0.00,,OVC OVC///CB,0.00,WUHU216DAVISVP2,2013-09-01 21:27:00,
2013-09-01 17:32:00,82.2,73.8,29.72,SW,223,2.0,5.0,75,0.00,,OVC OVC///CB,0.00,WUHU216DAVISVP2,2013-09-01 21:32:00,
2013-09-01 17:37:00,81.8,73.8,29.72,SSW,193,0.0,5.0,76,0.00,,OVC OVC///CB,0.00,WUHU216DAVISVP2,2013-09-01 21:37:00,
2013-09-01 17:42:00,81.7,73.7,29.72,South,177,4.0,6.0,76,0.00,,OVC OVC///CB,0.00,WUHU216DAVISVP2,2013-09-01 21:42:00,
2013-09-01 17:47:00,81.1,73.1,29.72,SSW,200,4.0,8.0,76,0.00,,OVC OVC///CB,0.00,WUHU216DAVISVP2,2013-09-01 21:47:00,
2013-09-01 17:52:00,81.0,73.0,29.72,SW,235,4.0,8.0,76,0.00,,OVC OVC///CB,0.00,WUHU216DAVISVP2,2013-09-01 21:52:00,
2013-09-01 17:57:00,81.1,73.5,29.72,SSW,198,3.0,8.0,77,0.00,,OVC OVC///CB,0.00,WUHU216DAVISVP2,2013-09-01 21:57:00,
2013-09-01 18:02:00,81.6,73.6,29.72,South,177,7.0,8.0,76,0.00,,OVC OVC///CB,0.00,WUHU216DAVISVP2,2013-09-01 22:02:00,
2013-09-01 18:07:00,81.4,73.4,29.72,SW,233,1.0,8.0,76,0.00,,OVC OVC///CB,0.00,WUHU216DAVISVP2,2013-09-01 22:07:00,
2013-09-01 18:12:00,81.4,73.4,29.72,SSE,150,3.0,10.0,76,0.00,,OVC OVC///CB,0.00,WUHU216DAVISVP2,2013-09-01 22:12:00,
2013-09-01 18:17:00,81.3,73.7,29.72,South,191,0.0,10.0,77,0.00,,OVC OVC///CB,0.00,WUHU216DAVISVP2,2013-09-01 22:17:00,
2013-09-01 18:22:00,81.3,73.7,29.72,SW,214,3.0,10.0,77,0.00,,OVC OVC///CB,0.00,WUHU216DAVISVP2,2013-09-01 22:22:00,
2013-09-01 18:27:00,81.2,73.6,29.72,SW,235,2.0,10.0,77,0.00,,OVC OVC///CB,0.00,WUHU216DAVISVP2,2013-09-01 22:27:00,
2013-09-01 18:32:00,81.0,73.4,29.72,SSW,196,1.0,7.0,77,0.00,,OVC OVC///CB,0.00,WUHU216DAVISVP2,2013-09-01 22:32:00,
2013-09-01 18:37:00,80.6,73.0,29.72,SSW,197,2.0,7.0,77,0.00,,OVC OVC///CB,0.00,WUHU216DAVISVP2,2013-09-01 22:37:00,
2013-09-01 18:42:00,80.1,72.9,29.72,SSW,203,2.0,6.0,78,0.00,,OVC OVC///CB,0.00,WUHU216DAVISVP2,2013-09-01 22:42:00,
2013-09-01 18:47:00,79.8,72.6,29.72,SW,221,1.0,7.0,78,0.00,,OVC OVC///CB,0.00,WUHU216DAVISVP2,2013-09-01 22:47:00,
2013-09-01 18:52:00,79.8,73.0,29.72,SW,219,0.0,7.0,79,0.00,,OVC OVC///CB,0.00,WUHU216DAVISVP2,2013-09-01 22:52:00,
2013-09-01 18:57:00,79.8,72.6,29.72,SW,217,2.0,6.0,78,0.00,,OVC OVC///CB,0.00,WUHU216DAVISVP2,2013-09-01 22:57:00,
2013-09-01 19:02:00,79.5,72.7,29.72,South,191,0.0,6.0,79,0.00,,OVC OVC///CB,0.00,WUHU216DAVISVP2,2013-09-01 23:02:00,
2013-09-01 19:07:00,79.0,72.6,29.72,South,188,4.0,7.0,80,0.00,,OVC OVC///CB,0.00,WUHU216DAVISVP2,2013-09-01 23:07:00,
2013-09-01 19:12:00,78.7,72.3,29.72,SSW,207,0.0,7.0,80,0.00,,OVC OVC///CB,0.00,WUHU216DAVISVP2,2013-09-01 23:12:00,
2013-09-01 19:17:00,78.6,72.5,29.72,SSW,210,2.0,7.0,81,0.00,,OVC OVC///CB,0.00,WUHU216DAVISVP2,2013-09-01 23:17:00,
2013-09-01 19:22:00,78.5,72.4,29.72,SW,218,2.0,4.0,81,0.00,,OVC OVC///CB,0.00,WUHU216DAVISVP2,2013-09-01 23:22:00,
2013-09-01 19:27:00,78.3,72.2,29.72,South,188,3.0,4.0,81,0.00,,OVC OVC///CB,0.00,WUHU216DAVISVP2,2013-09-01 23:27:00,
2013-09-01 19:32:00,78.2,72.5,29.72,SW,221,1.0,4.0,82,0.00,,OVC OVC///CB,0.00,WUHU216DAVISVP2,2013-09-01 23:32:00,
2013-09-01 19:37:00,77.9,72.2,29.72,SSW,205,0.0,5.0,82,0.00,,OVC OVC///CB,0.00,WUHU216DAVISVP2,2013-09-01 23:37:00,
2013-09-01 19:42:00,77.7,72.0,29.72,SSW,208,1.0,5.0,82,0.00,,OVC OVC///CB,0.00,WUHU216DAVISVP2,2013-09-01 23:42:00,
2013-09-01 19:47:00,77.5,71.8,29.72,SSW,205,0.0,5.0,82,0.00,,OVC OVC///CB,0.00,WUHU216DAVISVP2,2013-09-01 23:47:00,
2013-09-01 19:52:00,77.3,71.9,29.72,SSW,207,0.0,4.0,83,0.00,,OVC OVC///CB,0.00,WUHU216DAVISVP2,2013-09-01 23:52:00,
2013-09-01 19:57:00,77.1,71.7,29.72,SSW,204,2.0,3.0,83,0.00,,OVC OVC///CB,0.00,WUHU216DAVISVP2,2013-09-01 23:57:00,
2013-09-01 20:02:00,76.9,71.5,29.72,South,177,0.0,3.0,83,0.00,,OVC OVC///CB,0.00,WUHU216DAVISVP2,2013-09-02 00:02:00,
2013-09-01 20:07:00,76.7,71.7,29.72,SSW,207,0.0,4.0,84,0.00,,OVC OVC///CB,0.00,WUHU216DAVISVP2,2013-09-02 00:07:00,
2013-09-01 20:12:00,76.5,71.5,29.72,South,184,0.0,4.0,84,0.00,,OVC OVC///CB,0.00,WUHU216DAVISVP2,2013-09-02 00:12:00,
2013-09-01 20:17:00,76.3,71.6,29.72,South,179,0.0,4.0,85,0.00,,OVC OVC///CB,0.00,WUHU216DAVISVP2,2013-09-02 00:17:00,
2013-09-01 20:22:00,76.2,71.5,29.73,South,176,0.0,3.0,85,0.00,,OVC OVC///CB,0.00,WUHU216DAVISVP2,2013-09-02 00:22:00,
2013-09-01 20:27:00,76.0,71.3,29.73,South,190,0.0,3.0,85,0.00,,OVC OVC///CB,0.00,WUHU216DAVISVP2,2013-09-02 00:27:00,
2013-09-01 20:32:00,75.8,71.5,29.73,SW,225,0.0,3.0,86,0.00,,OVC OVC///CB,0.00,WUHU216DAVISVP2,2013-09-02 00:32:00,
2013-09-01 20:37:00,75.7,71.4,29.74,South,185,0.0,3.0,86,0.00,,OVC OVC///CB,0.00,WUHU216DAVISVP2,2013-09-02 00:37:00,
2013-09-01 20:42:00,75.7,71.4,29.74,SSW,200,0.0,3.0,86,0.00,,OVC OVC///CB,0.00,WUHU216DAVISVP2,2013-09-02 00:42:00,
2013-09-01 20:47:00,75.7,71.4,29.74,SSW,204,0.0,4.0,86,0.00,,OVC OVC///CB,0.00,WUHU216DAVISVP2,2013-09-02 00:47:00,
2013-09-01 20:52:00,75.5,71.2,29.74,SSW,203,0.0,4.0,86,0.00,,OVC OVC///CB,0.00,WUHU216DAVISVP2,2013-09-02 00:52:00,
2013-09-01 20:57:00,75.4,71.4,29.74,SSE,168,0.0,4.0,87,0.00,,OVC OVC///CB,0.00,WUHU216DAVISVP2,2013-09-02 00:57:00,
2013-09-01 21:02:00,75.3,71.3,29.75,SSE,167,0.0,4.0,87,0.00,,OVC OVC///CB,0.00,WUHU216DAVISVP2,2013-09-02 01:02:00,
2013-09-01 21:07:00,75.1,71.1,29.75,SSW,213,0.0,1.0,87,0.00,,OVC OVC///CB,0.00,WUHU216DAVISVP2,2013-09-02 01:07:00,
2013-09-01 21:12:00,75.0,71.3,29.75,SSW,203,0.0,2.0,88,0.00,,OVC OVC///CB,0.00,WUHU216DAVISVP2,2013-09-02 01:12:00,
2013-09-01 21:17:00,74.9,71.2,29.75,SSW,203,0.0,2.0,88,0.00,,OVC OVC///CB,0.00,WUHU216DAVISVP2,2013-09-02 01:17:00,
2013-09-01 21:22:00,74.7,71.0,29.75,SSW,203,0.0,2.0,88,0.00,,OVC OVC///CB,0.00,WUHU216DAVISVP2,2013-09-02 01:22:00,
2013-09-01 21:27:00,74.5,71.2,29.75,SW,226,0.0,2.0,89,0.00,,OVC OVC///CB,0.00,WUHU216DAVISVP2,2013-09-02 01:27:00,
2013-09-01 21:32:00,74.4,71.1,29.75,SSW,207,0.0,2.0,89,0.00,,OVC OVC///CB,0.00,WUHU216DAVISVP2,2013-09-02 01:32:00,
2013-09-01 21:37:00,74.3,71.0,29.75,SSW,207,0.0,2.0,89,0.00,,OVC OVC///CB,0.00,WUHU216DAVISVP2,2013-09-02 01:37:00,
2013-09-01 21:42:00,74.2,70.9,29.75,SSW,207,0.0,2.0,89,0.00,,OVC OVC///CB,0.00,WUHU216DAVISVP2,2013-09-02 01:42:00,
2013-09-01 21:47:00,74.1,71.1,29.75,SSW,207,0.0,1.0,90,0.00,,OVC OVC///CB,0.00,WUHU216DAVISVP2,2013-09-02 01:47:00,
2013-09-01 21:52:00,74.0,71.0,29.76,SSW,207,0.0,1.0,90,0.00,,OVC OVC///CB,0.00,WUHU216DAVISVP2,2013-09-02 01:52:00,
2013-09-01 21:57:00,73.9,70.9,29.75,SSW,207,0.0,1.0,90,0.00,,OVC OVC///CB,0.00,WUHU216DAVISVP2,2013-09-02 01:57:00,
2013-09-01 22:02:00,73.8,70.8,29.75,SSW,207,0.0,1.0,90,0.00,,OVC OVC///CB,0.00,WUHU216DAVISVP2,2013-09-02 02:02:00,
2013-09-01 22:07:00,73.9,70.9,29.75,SW,215,0.0,1.0,90,0.00,,OVC OVC///CB,0.00,WUHU216DAVISVP2,2013-09-02 02:07:00,
2013-09-01 22:12:00,74.0,71.0,29.76,SSW,197,0.0,1.0,90,0.00,,OVC OVC///CB,0.00,WUHU216DAVISVP2,2013-09-02 02:12:00,
2013-09-01 22:17:00,74.1,71.1,29.76,SSW,203,0.0,3.0,90,0.00,,OVC OVC///CB,0.00,WUHU216DAVISVP2,2013-09-02 02:17:00,
2013-09-01 22:22:00,74.1,71.1,29.76,SSW,212,0.0,3.0,90,0.00,,OVC OVC///CB,0.00,WUHU216DAVISVP2,2013-09-02 02:22:00,
2013-09-01 22:27:00,74.2,71.2,29.76,SSW,203,0.0,3.0,90,0.00,,OVC OVC///CB,0.00,WUHU216DAVISVP2,2013-09-02 02:27:00,
2013-09-01 22:32:00,74.2,71.2,29.76,SSW,194,0.0,3.0,90,0.00,,OVC OVC///CB,0.00,WUHU216DAVISVP2,2013-09-02 02:32:00,
2013-09-01 22:37:00,74.1,71.1,29.76,SSW,194,0.0,3.0,90,0.00,,OVC OVC///CB,0.00,WUHU216DAVISVP2,2013-09-02 02:37:00,
2013-09-01 22:42:00,74.1,71.1,29.76,SSW,194,0.0,2.0,90,0.00,,OVC OVC///CB,0.00,WUHU216DAVISVP2,2013-09-02 02:42:00,
2013-09-01 22:47:00,74.0,71.0,29.75,South,169,0.0,2.0,90,0.00,,OVC OVC///CB,0.00,WUHU216DAVISVP2,2013-09-02 02:47:00,
2013-09-01 22:52:00,73.9,70.9,29.75,SSW,203,0.0,3.0,90,0.00,,OVC OVC///CB,0.00,WUHU216DAVISVP2,2013-09-02 02:52:00,
2013-09-01 22:57:00,73.8,70.8,29.76,SSW,203,0.0,3.0,90,0.00,,OVC OVC///CB,0.00,WUHU216DAVISVP2,2013-09-02 02:57:00,
2013-09-01 23:02:00,73.8,71.1,29.76,SSW,204,0.0,3.0,91,0.00,,OVC OVC///CB,0.00,WUHU216DAVISVP2,2013-09-02 03:02:00,
2013-09-01 23:07:00,73.7,71.0,29.76,SSW,212,1.0,3.0,91,0.00,,OVC OVC///CB,0.00,WUHU216DAVISVP2,2013-09-02 03:07:00,
2013-09-01 23:12:00,73.6,70.9,29.76,SSW,197,0.0,3.0,91,0.00,,OVC OVC///CB,0.00,WUHU216DAVISVP2,2013-09-02 03:12:00,
2013-09-01 23:17:00,73.6,70.9,29.76,SSW,197,0.0,3.0,91,0.00,,OVC OVC///CB,0.00,WUHU216DAVISVP2,2013-09-02 03:17:00,
2013-09-01 23:22:00,73.5,70.8,29.75,SSW,198,0.0,3.0,91,0.00,,OVC OVC///CB,0.00,WUHU216DAVISVP2,2013-09-02 03:22:00,
2013-09-01 23:27:00,73.5,70.8,29.75,SSW,212,0.0,2.0,91,0.00,,OVC OVC///CB,0.00,WUHU216DAVISVP2,2013-09-02 03:27:00,
2013-09-01 23:32:00,73.5,70.8,29.75,SW,235,0.0,3.0,91,0.00,,OVC OVC///CB,0.00,WUHU216DAVISVP2,2013-09-02 03:32:00,
2013-09-01 23:37:00,73.4,70.7,29.75,SW,222,0.0,3.0,91,0.00,,OVC OVC///CB,0.00,WUHU216DAVISVP2,2013-09-02 03:37:00,
2013-09-01 23:42:00,73.2,70.8,29.75,SW,228,0.0,3.0,92,0.00,,OVC OVC///CB,0.00,WUHU216DAVISVP2,2013-09-02 03:42:00,
2013-09-01 23:47:00,73.0,70.6,29.75,WSW,242,1.0,3.0,92,0.00,,OVC OVC///CB,0.00,WUHU216DAVISVP2,2013-09-02 03:47:00,
2013-09-01 23:52:00,72.8,70.4,29.75,WSW,242,0.0,2.0,92,0.00,,OVC OVC///CB,0.00,WUHU216DAVISVP2,2013-09-02 03:52:00,
2013-09-01 23:57:00,72.6,70.6,29.75,SW,228,1.0,2.0,93,0.00,,OVC OVC///CB,0.00,WUHU216DAVISVP2,2013-09-02 03:57:00,